Regional Weather Roundup
Issued by NWS

Home | Current Version | Previous Version | Text Only | Print | Product List | Glossary On
Versions: 1 2 3 4 5 6 7 8 9 10 11 12 13 14 15 16 17 18 19 20 21 22 23 24 25 26 27 28 29 30 31 32 33 34 35 36 37 38 39 40 41 42 43 44 45 46 47 48 49 50
681
ASUS44 KLIX 200610
RWRLA
LOUISIANA WEATHER ROUNDUP
NATIONAL WEATHER SERVICE NEW ORLEANS LA
100 AM CDT SAT SEP 20 2014

NOTE: "FAIR" INDICATES FEW OR NO CLOUDS BELOW 12,000 FEET WITH NO
      SIGNIFICANT WEATHER AND/OR OBSTRUCTIONS TO VISIBILITY.
      SKY/WX - SKY CONDITION AND SIGNIFICANT WEATHER.
      TMP - AIR TEMPERATURE.    DP   - DEWPOINT TEMPERATURE.
      RH  - RELATIVE HUMIDITY.  PRES - PRESSURE.
      HX  - HEAT INDEX.         WCI  - WIND CHILL INDEX.

*  THESE STATIONS ARE NOT NWS OR FAA STATIONS AND ARE NOT UNDER
   NWS QUALITY CONTROL.

LAZ040-048-061>063-065-066-069-200700-
SOUTHEAST LOUISIANA

CITY           SKY/WX    TMP DP  RH WIND       PRES   REMARKS
N.O. AUDUBON     N/A     78  70  74 MISG        N/A
6HR MIN TEMP:  78; 6HR MAX TEMP:  82;

N.O. INTL ARPT CLEAR     78  68  71 E5        29.93F
6HR MIN TEMP:  78; 6HR MAX TEMP:  82;

N.O. LAKEFRONT CLEAR     80  70  71 E12       29.94F
6HR MIN TEMP:  78; 6HR MAX TEMP:  81;

N.O. DOWNTOWN* FAIR      81  66  61 E3        29.94F
6HR MIN TEMP:  79; 6HR MAX TEMP:  82;

SLIDELL        CLEAR     71  68  90 NE3       29.95F
6HR MIN TEMP:  71; 6HR MAX TEMP:  80;

BATON ROUGE    CLEAR     72  70  93 NE3       29.95F
6HR MIN TEMP:  72; 6HR MAX TEMP:  78;

BOOTHVILLE     CLEAR     81  71  71 E12G21    29.92F
6HR MIN TEMP:  81; 6HR MAX TEMP:  81;

BELLE CHASSE   CLEAR     75  68  78 NE6       29.93F
6HR MIN TEMP:  74; 6HR MAX TEMP:  80;

BOGALUSA*      FAIR      70  66  89 CALM      29.98F FOG
6HR MIN TEMP:  70; 6HR MAX TEMP:  81;

GALLIANO*      NOT AVBL
NEW ROADS*     FAIR      71  70  97 CALM      29.95F FOG
6HR MIN TEMP:  71; 6HR MAX TEMP:  82;

GONZALES*      FAIR      70  70 100 CALM      29.94F
6HR MIN TEMP:  70; 6HR MAX TEMP:  81;

HAMMOND*       CLEAR     73  68  83 CALM      29.97F
HOUMA*         CLEAR     74  66  77 NE5       29.92F
6HR MIN TEMP:  73; 6HR MAX TEMP:  79; 6HR PCP:  0.01;

PORT FOURCHON* MOCLDY    81  73  78 E13G21    29.93F

$$

LAZ041-044-053-054-200700-
SOUTHWEST LOUISIANA

CITY           SKY/WX    TMP DP  RH WIND       PRES   REMARKS
LAKE CHARLES   CLEAR     74  72  93 E6        29.93F
6HR MIN TEMP:  74; 6HR MAX TEMP:  83;

LAFAYETTE      CLEAR     73  71  93 CALM      29.94F
6HR MIN TEMP:  73; 6HR MAX TEMP:  82;

PATTERSON      CLEAR     73  70  88 NE6       29.95S
6HR MIN TEMP:  73; 6HR MAX TEMP:  79;

SALT POINT       N/A     76  72  87 CALM      29.91F
6HR MIN TEMP:  76; 6HR MAX TEMP:  82; 6HR PCP:  0.01;

NEW IBERIA     CLEAR     74  71  91 NE6       29.94F
6HR MIN TEMP:  74; 6HR MAX TEMP:  84;

CHENAULT AIRPK CLEAR     73  71  94 E5        29.94S
6HR MIN TEMP:  72; 6HR MAX TEMP:  82;


$$

LAZ027-028-200700-
CENTRAL LOUISIANA

CITY           SKY/WX    TMP DP  RH WIND       PRES   REMARKS
FORT POLK      CLEAR     73  70  90 CALM      29.96S
6HR MIN TEMP:  73; 6HR MAX TEMP:  82;

ALEXANDRIA INT CLEAR     73  70  90 CALM      29.94F
6HR MIN TEMP:  73; 6HR MAX TEMP:  83;

ALEXANDRIA     CLEAR     71  69  93 CALM      29.96F FOG
6HR MIN TEMP:  71; 6HR MAX TEMP:  81;


$$

LAZ001-002-200700-
NORTHWEST LOUISIANA

CITY           SKY/WX    TMP DP  RH WIND       PRES   REMARKS
SHREVEPORT     CLEAR     74  69  85 CALM      29.97R
6HR MIN TEMP:  74; 6HR MAX TEMP:  84;

BARKSDALE AFB  CLEAR     73  68  86 CALM      29.97S
6HR MIN TEMP:  71; 6HR MAX TEMP:  83;

DTN SHREVEPORT CLEAR     72  32  23 CALM      29.97S
6HR MIN TEMP:  72; 6HR MAX TEMP:  83;


$$

LAZ014-016-200700-
NORTHEAST LOUISIANA

CITY           SKY/WX    TMP DP  RH WIND       PRES   REMARKS
MONROE         CLEAR     71  70  96 CALM      29.98F
6HR MIN TEMP:  71; 6HR MAX TEMP:  81;

TALLULAH       CLEAR     69  67  93 CALM      29.98S
6HR MIN TEMP:  68; 6HR MAX TEMP:  82;


$$




USA.gov is the U.S. government's official web portal to all federal, state and local government web resources and services.